This is the latest recevied weather packets stored in our database for station/object K1BES. If no packets are shown the sender has not sent any weather packets the latest 10 day(s).
| Time | Temp. | Humidity | Pressure | Rain* | Wind** | Luminosity | Snow |
|---|---|---|---|---|---|---|---|
| 1777464557 | 22.22° C | 92% | 1018.4 hPa | 0 mm | - | 79 W/m² | - |
| 1777464253 | 21.11° C | 95% | 1018.6 hPa | 0 mm | - | 70 W/m² | - |
| 1777463948 | 20.56° C | 96% | 1018.4 hPa | 0 mm | - | 62 W/m² | - |
| 1777463644 | 20.56° C | 96% | 1018.4 hPa | 0 mm | - | 38 W/m² | - |
| 1777463339 | 20° C | 96% | 1018.4 hPa | 0 mm | - | 34 W/m² | - |
| 1777463035 | 20° C | 96% | 1018.2 hPa | 0 mm | - | 30 W/m² | - |
| 1777462731 | 20° C | 96% | 1018.1 hPa | 0 mm | - | 27 W/m² | - |
| 1777462426 | 20° C | 96% | 1017.9 hPa | 0 mm | - | 24 W/m² | - |
| 1777462123 | 19.44° C | 96% | 1017.8 hPa | 0 mm | - | 22 W/m² | - |
| 1777461820 | 19.44° C | 96% | 1017.8 hPa | 0 mm | - | 18 W/m² | - |
| 1777461515 | 19.44° C | 96% | 1018 hPa | 0 mm | - | 16 W/m² | - |
| 1777461212 | 19.44° C | 96% | 1017.8 hPa | 0 mm | - | 13 W/m² | - |
| 1777460907 | 19.44° C | 95% | 1017.7 hPa | 0 mm | - | 10 W/m² | - |
| 1777460603 | 19.44° C | 95% | 1017.5 hPa | 0 mm | - | 7 W/m² | - |
| 1777460299 | 19.44° C | 95% | 1017.6 hPa | 0 mm | - | 5 W/m² | - |
| 1777459996 | 18.89° C | 95% | 1017.6 hPa | 0 mm | - | 3 W/m² | - |
| 1777459692 | 19.44° C | 95% | 1017.5 hPa | 0 mm | - | 1 W/m² | - |
| 1777459389 | 19.44° C | 95% | 1017.8 hPa | 0 mm | - | 1 W/m² | - |
| 1777459087 | 19.44° C | 95% | 1017.8 hPa | 0 mm | - | 0 W/m² | - |
| 1777458784 | 19.44° C | 95% | 1017.9 hPa | 0 mm | - | 0 W/m² | - |
| 1777458481 | 19.44° C | 95% | 1017.9 hPa | 0 mm | - | 0 W/m² | - |
| 1777458178 | 19.44° C | 95% | 1017.9 hPa | 0 mm | - | 0 W/m² | - |
| 1777457872 | 19.44° C | 95% | 1017.8 hPa | 0 mm | - | 0 W/m² | - |
| 1777457568 | 19.44° C | 95% | 1017.7 hPa | 0 mm | - | 0 W/m² | - |
| 1777457263 | 19.44° C | 94% | 1017.4 hPa | 0 mm | - | 0 W/m² | - |
* Rain latest hour (hover to see other rain measurements)
** Current wind speed in m/s (hover to see current wind gust speed)